This is the latest recevied weather packets stored in our database for station/object IK2ILW-4. If no packets are shown the sender has not sent any weather packets the latest 10 day(s).
| Time | Temp. | Humidity | Pressure | Rain* | Wind** | Luminosity | Snow |
|---|---|---|---|---|---|---|---|
| 1778133763 | 6.11° C | 87% | 1013.3 hPa | 2.03 mm | - | 204 W/m² | - |
| 1778133465 | 6.11° C | 87% | 1012.4 hPa | 2.03 mm | - | 144 W/m² | - |
| 1778133161 | 6.11° C | 89% | 1012.4 hPa | 2.03 mm | - | 269 W/m² | - |
| 1778132861 | 5.56° C | 93% | 1012.4 hPa | 2.03 mm | - | 371 W/m² | - |
| 1778132559 | 5° C | 95% | 1012.3 hPa | 2.03 mm | - | 332 W/m² | - |
| 1778132255 | 4.44° C | 96% | 1012.3 hPa | 2.03 mm | - | 134 W/m² | - |
| 1778131954 | 4.44° C | 96% | 1012.3 hPa | 2.03 mm | - | 90 W/m² | - |
| 1778131651 | 3.89° C | 97% | 1012.1 hPa | 2.03 mm | - | 62 W/m² | - |
| 1778131351 | 3.89° C | 97% | 1012.1 hPa | 2.03 mm | - | 62 W/m² | - |
| 1778131050 | 3.89° C | 96% | 1012.1 hPa | 2.03 mm | - | 77 W/m² | - |
| 1778130750 | 3.89° C | 96% | 1012 hPa | 2.03 mm | - | 69 W/m² | - |
| 1778130467 | 3.89° C | 96% | 1012 hPa | 2.03 mm | - | 46 W/m² | - |
| 1778130163 | 3.89° C | 96% | 1012 hPa | 2.03 mm | - | 28 W/m² | - |
| 1778129860 | 3.89° C | 95% | 1011.9 hPa | 2.03 mm | - | 35 W/m² | - |
| 1778129560 | 4.44° C | 93% | 1011.9 hPa | 2.03 mm | - | 39 W/m² | - |
| 1778129263 | 5° C | 92% | 1011.9 hPa | 2.03 mm | - | 42 W/m² | - |
| 1778128959 | 5° C | 91% | 1011.9 hPa | 2.03 mm | - | 33 W/m² | - |
| 1778128658 | 5° C | 91% | 1011.9 hPa | 2.03 mm | - | 32 W/m² | - |
| 1778128354 | 5° C | 92% | 1011.9 hPa | 2.03 mm | - | 16 W/m² | - |
| 1778128070 | 4.44° C | 93% | 1011.9 hPa | 2.03 mm | - | 11 W/m² | - |
| 1778127767 | 4.44° C | 94% | 1011.9 hPa | 2.03 mm | - | 7 W/m² | - |
| 1778127466 | 3.89° C | 95% | 1011.9 hPa | 2.03 mm | - | 0 W/m² | - |
| 1778127163 | 3.89° C | 95% | 1012.6 hPa | 2.03 mm | - | 0 W/m² | - |
| 1778126862 | 3.89° C | 95% | 1012.6 hPa | 2.03 mm | - | 0 W/m² | - |
| 1778126557 | 3.89° C | 95% | 1012.6 hPa | 2.03 mm | - | 0 W/m² | - |
* Rain since midnight (hover to see other rain measurements)
** Current wind speed in m/s (hover to see current wind gust speed)